Voltar ao catálogo

STARLINK-31873

AtivoComunicaçõesVLEO
NORAD 59790·PAYLOAD·🇺🇸 United States

Lançado May 18, 2024 de Cape Canaveral Space Force Station

Loading…

Próximas Passagens (próximas 24 horas)

TLE

AtualizadoSource: CelesTrak SupGP

Época: Sep 15, 2026, 03:20 UTC

1 59790C 24093J   26258.13937500 -.00055199  00000+0 -19994-2 0  2581
2 59790  43.0022 218.8433 0001306 269.9577 354.3426 15.27603933    14

Acompanhe STARLINK-31873 em tempo real com AllMySat

Download on the App Store